Flag for Germany Weather past 2 weeks in Greven, North Rhine-Westphalia, Germany

Now
61 °F

Clear.


Feels Like: 61 °F
Forecast: 59 / 73 °F
Wind: 3 mph from East

Location: Muenster / Osnabrueck

Current Time: Sep 16, 2014 at 3:17:43 AM

Latest Report: Sep 16, 2014 at 2:50 AM


Visibility: 4 mi

Pressure: 30.01 "Hg

Humidity: 94%

Dew point: 59 °F

Location of GrevenLocation

Historic Weather in Greven — Graph

°F

Greven temperature yesterday

Maximum temperature yesterday: 70 °F (at 2:50 PM)
Minimum temperature yesterday: 48 °F (at 3:50 AM)
Average temperature yesterday: 61 °F

Past Weeks' High & Low Weather Summary

 TemperatureHumidityPressure
High77 °F (Sep 4, 4:20 PM)100% (Sep 1, 1:20 AM)30.27 "Hg (Sep 1, 1:20 AM)
Low46 °F (Sep 9, 6:20 AM)49% (Sep 8, 5:20 PM)29.86 "Hg (Sep 6, 3:50 PM)
Average61 °F84%30.09 "Hg
* Reported Sep 1 1:20 AM — Sep 16 1:50 AM, Greven, Weather by CustomWeather, © 2014

Note: Actual official high and low records may vary slightly from our data, if they occured in-between our weather recording intervals... More about our weather records

Advertising

Greven weather history for previous 24 hours

 ConditionsComfort  
Time TempWeatherWind HumidityBarometerVisibility
1:50 AM
Sep 16
64 °FClear.3 mph88%30.01 "Hg6 mi
1:20 AM64 °FClear.3 mph88%30.01 "Hg5 mi
12:50 AM64 °FClear.5 mph88%30.01 "Hg4 mi
12:20 AM64 °FClear.5 mph88%30.04 "Hg4 mi
11:50 PM
Sep 15
64 °FClear.3 mph88%30.04 "Hg4 mi
11:20 PM63 °FClear.5 mph94%30.04 "Hg6 mi
10:50 PM63 °FClear.6 mph94%30.04 "Hg6 mi
10:20 PM64 °FClear.6 mph88%30.04 "Hg10 mi
9:50 PM66 °FClear.7 mph83%30.04 "Hg10 mi
9:20 PM66 °FClear.8 mph88%30.04 "Hg10 mi
8:50 PM66 °FClear.7 mph88%30.01 "Hg10 mi
8:20 PM66 °FSunny.6 mph88%30.01 "Hg10 mi
7:50 PM66 °FSunny.3 mph88%30.01 "Hg10 mi
7:20 PM66 °FSunny.3 mph88%30.01 "Hg10 mi
6:50 PM68 °FPartly sunny.5 mph83%30.01 "Hg6 mi
6:20 PM68 °FPartly sunny.6 mph83%30.01 "Hg5 mi
5:50 PM68 °FBroken clouds.6 mph83%30.01 "Hg5 mi
5:20 PM68 °FBroken clouds.7 mph83%30.01 "HgN/A
4:50 PM68 °FBroken clouds.7 mph83%30.01 "HgN/A
4:20 PM70 °FBroken clouds.8 mph73%30.01 "Hg6 mi
3:50 PM70 °FBroken clouds.8 mph73%30.04 "Hg6 mi
3:20 PM70 °FBroken clouds.6 mph73%30.04 "HgN/A
2:50 PM70 °FBroken clouds.7 mph73%30.04 "HgN/A
2:20 PM68 °FPartly sunny.6 mph78%30.04 "HgN/A
1:50 PM68 °FBroken clouds.7 mph78%30.04 "HgN/A
1:20 PM66 °FBroken clouds.6 mph83%30.04 "HgN/A
12:50 PM66 °FBroken clouds.7 mph83%30.07 "HgN/A
12:20 PM66 °FBroken clouds.5 mph83%30.07 "Hg6 mi
11:50 AM64 °FBroken clouds.6 mph88%30.07 "Hg6 mi
11:20 AM63 °FPartly sunny.7 mph88%30.07 "Hg6 mi
10:20 AM61 °FPartly sunny.6 mph94%30.07 "Hg6 mi
9:50 AM59 °FPartly sunny.6 mph100%30.07 "Hg5 mi
9:20 AM59 °FBroken clouds.2 mph100%30.07 "Hg5 mi
8:50 AM57 °FClear.1 mph100%30.07 "Hg5 mi
8:20 AM54 °FClear.1 mph100%30.07 "Hg4 mi
7:50 AM52 °FFog.2 mph100%30.07 "Hg4 mi
7:20 AM50 °FCool.2 mph100%30.07 "Hg4 mi
6:50 AM52 °FFog.1 mph100%30.07 "Hg2 mi
6:20 AM54 °FFog.2 mph100%30.07 "HgN/A
5:50 AM52 °FClear.1 mph100%30.07 "Hg5 mi
5:20 AM52 °FClear.1 mph100%30.07 "Hg4 mi
4:20 AM48 °FFog.1 mph100%30.07 "Hg1 mi
3:50 AM48 °FFog.2 mph100%30.07 "Hg1 mi
3:20 AM50 °FFog.1 mph100%30.07 "Hg1 mi
Weather by CustomWeather, © 2014

See weather overviewHow to use our weather pages